View from above orbital plane
|
View from above satellite
|
Ground track
|
The orbit data is extracted from the following two-line orbital elements,
1 37222U 10062A 21012.72838468 0.00000110 00000-0 15001-4 0 03
2 37222 71.9643 234.4159 0018031 238.6558 121.3237 14.78511145 02
Epoch (UTC): | 12 January 2021 17:28:52 |
Eccentricity: | 0.0018031 |
inclination: | 71.9643° |
perigee height: | 621 km |
apogee height: | 646 km |
right ascension of ascending node: | 234.4159° |
argument of perigee: | 238.6558° |
revolutions per day: | 14.78511145 |
mean anomaly at epoch: | 121.3237° |
orbit number at epoch: | 0 |
The dashed part of the orbit path shows where the satellite is in the earth's shadow,
|
|